Wind_Speed
48 47 47 48 51 52 50 49 49 51 52 52 52 49 50 50 46 44 45 42 43 43 40 36 35 40 40 39 37 33 35 35
47 47 49 51 54 57 57 55 53 54 57 58 56 54 53 53 50 46 46 46 44 46 43 39 40 43 43 40 37 36 36 35
50 47 46 50 57 58 61 62 60 59 60 60 59 58 59 57 54 49 48 47 47 47 46 43 44 45 45 43 41 41 40 40
44 52 48 49 57 60 63 63 67 65 63 58 51 48 48 50 54 53 50 48 49 50 49 46 46 47 48 47 46 47 48 45
33 42 45 49 51 57 63 65 68 68 65 63 62 61 63 64 62 60 56 52 50 52 51 49 48 49 49 50 49 50 50 51
35 38 40 45 53 56 62 67 70 69 68 70 65 58 56 53 59 59 58 55 52 53 52 51 51 52 52 52 53 53 53 52
25 28 31 34 44 53 59 67 71 72 69 67 65 63 59 57 58 60 62 60 57 56 54 52 53 55 55 55 54 55 55 55
35 38 31 36 39 42 56 64 69 68 67 64 64 64 61 63 61 61 62 62 60 60 57 56 56 56 55 55 55 56 57 57
28 30 35 31 36 44 52 62 64 64 66 67 63 64 61 59 58 58 60 61 61 61 59 57 55 55 55 55 54 55 59 58
23 14 16 26 34 42 56 63 63 61 68 63 64 65 62 61 56 55 56 56 57 58 57 57 54 52 55 55 54 55 57 57
25 15 10 13 19 36 48 54 50 53 59 58 64 64 61 54 52 51 51 51 53 55 54 55 53 51 54 54 54 53 55 55
22 20 15 10 10 15 30 38 49 52 54 56 58 57 52 50 45 46 50 51 53 49 48 49 51 52 51 51 52 53 52 52
19 14 14 15 9 10 16 28 34 41 48 51 50 49 48 45 43 44 45 47 47 44 42 45 47 47 47 49 49 50 48 47
23 18 10 3 5 5 9 22 28 34 39 43 43 42 38 39 41 44 45 46 44 40 39 38 39 40 42 44 45 46 47 47
23 16 9 10 7 3 2 9 23 31 33 36 33 30 34 34 38 42 43 41 39 38 36 33 32 34 37 39 39 40 44 46
21 17 11 15 13 12 11 9 2 16 31 32 33 29 32 34 37 39 38 35 33 32 31 29 30 33 33 31 32 34 38 43
24 20 14 20 19 17 16 18 19 7 6 9 15 23 22 24 27 27 27 26 26 27 26 25 26 30 29 28 28 31 36 40
27 23 18 24 23 21 19 20 21 20 17 11 9 11 13 15 15 18 19 21 22 22 24 26 28 28 26 24 25 29 34 37
26 24 26 19 21 21 16 18 20 20 24 21 9 5 3 11 14 16 18 19 19 20 25 24 24 24 22 23 24 29 30 33
Wind_Direction
247 244 242 236 232 229 228 226 223 221 217 216 217 219 219 221 224 222 226 232 227 219 217 215 211 205 203 202 203 200 201 197
258 245 242 235 233 229 227 222 222 216 213 213 216 217 218 221 226 223 225 227 228 219 217 213 213 208 209 206 202 201 193 196
257 251 244 229 229 229 227 226 223 219 218 221 218 217 215 218 222 224 224 225 224 222 220 216 214 208 208 207 207 196 197 197
251 249 244 238 220 223 226 230 224 222 221 213 207 209 211 212 223 226 225 224 222 223 223 219 216 213 210 210 210 207 198 197
253 247 242 232 228 226 227 227 227 224 217 211 210 210 207 216 220 223 224 221 221 221 224 222 220 218 215 215 215 213 210 202
266 260 255 255 239 229 223 223 223 223 216 217 211 206 211 210 216 220 222 220 219 219 223 224 222 222 220 218 217 215 218 217
284 281 271 255 251 236 224 219 220 219 217 211 210 211 208 207 213 215 220 220 218 218 220 224 224 222 222 222 221 220 222 222
298 287 282 268 252 240 223 218 215 211 208 207 208 213 212 215 215 214 214 217 218 219 219 221 223 223 223 223 223 223 225 225
315 291 280 280 256 245 231 223 214 206 206 208 207 211 211 213 214 219 221 221 223 222 220 220 223 223 223 224 226 228 227 226
354 313 271 273 262 242 232 226 213 205 207 203 207 211 212 215 216 219 221 222 224 224 223 222 223 224 225 223 226 229 228 228
10 20 330 280 246 233 225 219 202 201 202 200 208 210 211 217 217 219 225 227 224 225 227 224 224 224 225 224 224 228 231 230
351 8 26 358 285 241 225 212 202 202 207 209 208 207 210 214 219 220 224 225 223 225 227 227 226 224 224 223 226 228 230 231
325 332 350 13 355 251 223 212 205 207 205 206 207 212 211 212 217 221 226 227 226 227 226 225 226 226 226 227 226 228 227 228
302 298 295 286 356 8 236 217 211 204 200 202 204 209 211 211 217 222 223 221 221 221 223 224 227 230 232 231 233 232 231 231
288 294 285 234 221 237 156 204 203 204 205 208 206 209 211 215 218 221 221 218 219 219 219 220 225 232 231 230 235 237 235 233
263 254 246 203 183 196 178 154 247 189 196 198 201 198 209 214 216 216 215 212 211 215 215 219 224 228 231 235 240 241 236 232
245 242 225 196 180 175 162 195 200 178 175 170 195 183 184 200 201 197 200 202 203 210 218 225 228 228 232 239 242 243 237 231
239 239 220 201 182 173 161 158 157 157 135 145 181 169 162 172 181 188 192 199 203 210 218 221 223 228 236 239 245 241 236 240
236 223 213 209 176 153 156 155 146 159 142 146 140 74 193 187 187 194 195 197 206 214 217 221 228 236 240 240 241 236 234 237
Height
1387 1391 1394 1399 1402 1405 1409 1413 1418 1424 1432 1438 1443 1450 1456 1460 1465 1471 1475 1478 1483 1488 1494 1500 1506 1508 1509 1512 1516 1521 1523 1525
1377 1382 1385 1388 1393 1396 1399 1405 1409 1415 1422 1428 1432 1436 1444 1450 1455 1462 1467 1471 1476 1483 1488 1493 1496 1500 1506 1510 1514 1517 1522 1523
1371 1371 1374 1374 1376 1383 1386 1392 1397 1402 1408 1412 1419 1423 1431 1438 1444 1452 1458 1464 1469 1474 1480 1486 1490 1493 1499 1503 1507 1512 1516 1518
1362 1362 1364 1364 1362 1369 1374 1378 1383 1388 1396 1407 1416 1424 1431 1435 1438 1441 1447 1454 1460 1466 1471 1478 1483 1488 1491 1496 1499 1503 1505 1511
1354 1354 1354 1355 1352 1355 1360 1366 1371 1377 1385 1391 1398 1399 1405 1411 1417 1425 1432 1442 1450 1458 1465 1470 1476 1481 1485 1489 1494 1497 1499 1500
1345 1344 1344 1345 1345 1342 1346 1353 1359 1365 1370 1376 1383 1391 1398 1407 1412 1419 1427 1432 1439 1449 1456 1463 1468 1472 1478 1482 1486 1489 1493 1495
1339 1339 1340 1338 1338 1337 1336 1340 1346 1352 1359 1366 1372 1378 1386 1394 1400 1406 1414 1421 1427 1434 1445 1452 1459 1465 1470 1475 1480 1484 1486 1491
1328 1325 1328 1330 1328 1326 1330 1333 1335 1342 1350 1357 1363 1369 1377 1381 1387 1392 1402 1412 1418 1422 1431 1439 1446 1454 1461 1469 1474 1479 1481 1485
1325 1320 1319 1319 1319 1319 1317 1321 1328 1334 1339 1346 1355 1362 1369 1376 1383 1386 1392 1400 1409 1416 1422 1430 1437 1445 1453 1461 1468 1472 1475 1478
1321 1314 1311 1310 1310 1308 1308 1308 1314 1323 1327 1338 1346 1353 1358 1364 1375 1382 1387 1394 1402 1409 1417 1423 1429 1437 1443 1451 1459 1463 1469 1474
1323 1313 1309 1306 1306 1306 1302 1306 1313 1319 1325 1330 1336 1342 1352 1363 1370 1377 1381 1388 1395 1401 1410 1417 1422 1429 1435 1443 1450 1455 1462 1465
1328 1317 1309 1306 1307 1309 1313 1313 1309 1313 1319 1329 1333 1338 1348 1356 1366 1371 1375 1381 1386 1396 1404 1411 1417 1422 1428 1436 1442 1448 1454 1459
1332 1323 1314 1309 1305 1306 1313 1318 1320 1321 1325 1319 1333 1338 1343 1351 1360 1366 1370 1376 1382 1391 1399 1405 1410 1416 1423 1429 1435 1440 1447 1451
1335 1324 1315 1312 1310 1307 1310 1315 1319 1320 1323 1323 1329 1336 1343 1349 1355 1360 1366 1371 1377 1385 1393 1398 1405 1410 1417 1422 1428 1434 1436 1444
1332 1326 1314 1313 1307 1309 1313 1314 1315 1318 1320 1325 1328 1334 1341 1348 1353 1357 1362 1368 1373 1380 1388 1393 1399 1405 1411 1418 1423 1428 1432 1435
1326 1324 1318 1312 1302 1306 1309 1309 1319 1313 1317 1316 1324 1329 1337 1343 1349 1352 1358 1363 1371 1378 1384 1389 1394 1400 1407 1413 1418 1422 1425 1430
1322 1321 1316 1312 1304 1306 1302 1304 1308 1318 1310 1321 1327 1324 1329 1339 1347 1350 1358 1364 1369 1375 1381 1385 1390 1396 1402 1407 1412 1416 1420 1425
1316 1313 1317 1315 1303 1302 1304 1310 1313 1316 1311 1324 1333 1326 1331 1339 1346 1351 1355 1361 1366 1371 1377 1382 1388 1392 1398 1403 1408 1413 1417 1420
1307 1312 1317 1316 1305 1303 1310 1313 1312 1321 1307 1317 1327 1330 1339 1344 1348 1352 1354 1358 1362 1367 1374 1378 1383 1389 1393 1398 1404 1410 1413 1417